Wattamolla Observation History
Time Wind Speed Temp Pressure Rel. Hum Rain
03/06:30am W 15-22 kts n/a n/a n/a n/a
03/06:00am WNW 14-20 kts n/a n/a n/a n/a
03/05:30am WNW 14-21 kts n/a n/a n/a n/a
03/05:06am W 17-27 kts n/a n/a n/a n/a
03/05:00am W 17-24 kts n/a n/a n/a n/a
03/04:30am W 18-26 kts n/a n/a n/a n/a
03/04:00am W 19-29 kts n/a n/a n/a n/a
03/03:34am W 17-27 kts n/a n/a n/a n/a
03/03:30am W 18-27 kts n/a n/a n/a n/a
03/03:03am W 17-27 kts n/a n/a n/a n/a
03/03:00am W 18-26 kts n/a n/a n/a n/a
03/02:32am W 16-27 kts n/a n/a n/a n/a
03/02:30am W 16-25 kts n/a n/a n/a n/a
03/02:15am W 16-26 kts n/a n/a n/a n/a
03/02:00am W 13-20 kts n/a n/a n/a n/a
03/01:30am WNW 14-20 kts n/a n/a n/a n/a
03/01:00am W 15-20 kts n/a n/a n/a n/a
03/12:30am W 16-24 kts n/a n/a n/a n/a
03/12:00am W 16-24 kts n/a n/a n/a n/a
Time Wind Speed Temp Pressure Rel. Hum Rain
02/11:34pm W 18-28 kts n/a n/a n/a n/a
02/11:30pm W 19-28 kts n/a n/a n/a n/a
02/11:20pm W 16-28 kts n/a n/a n/a n/a
02/11:00pm WNW 17-26 kts n/a n/a n/a n/a
02/10:43pm WNW 16-26 kts n/a n/a n/a n/a
02/10:30pm WNW 16-23 kts n/a n/a n/a n/a
02/10:00pm W 17-27 kts n/a n/a n/a n/a
02/09:31pm W 16-26 kts n/a n/a n/a n/a
02/09:30pm WNW 16-23 kts n/a n/a n/a n/a
02/09:00pm WNW 15-24 kts n/a n/a n/a n/a
02/08:34pm WNW 15-26 kts n/a n/a n/a n/a
02/08:30pm W 15-23 kts n/a n/a n/a n/a
02/08:07pm W 16-30 kts n/a n/a n/a n/a
02/08:00pm W 16-22 kts n/a n/a n/a n/a
02/07:30pm W 16-27 kts n/a n/a n/a n/a
02/07:01pm W 16-28 kts n/a n/a n/a n/a
02/07:00pm W 15-24 kts n/a n/a n/a n/a
02/06:48pm W 17-27 kts n/a n/a n/a n/a
02/06:30pm W 16-25 kts n/a n/a n/a n/a
02/06:03pm W 15-25 kts n/a n/a n/a n/a
02/06:00pm W 15-22 kts n/a n/a n/a n/a
02/05:30pm W 11-19 kts n/a n/a n/a n/a
02/05:00pm W 11-18 kts n/a n/a n/a n/a
02/04:30pm WSW 12-17 kts n/a n/a n/a n/a
02/04:00pm WSW 10-17 kts n/a n/a n/a n/a
02/03:30pm WSW 11-17 kts n/a n/a n/a n/a
02/03:00pm SW 10-15 kts n/a n/a n/a n/a
02/02:30pm S 19-25 kts n/a n/a n/a n/a
02/02:00pm S 15-22 kts n/a n/a n/a n/a
02/01:39pm S 20-30 kts n/a n/a n/a n/a
02/01:30pm S 21-29 kts n/a n/a n/a n/a
02/01:23pm S 17-28 kts n/a n/a n/a n/a
02/01:08pm S 20-29 kts n/a n/a n/a n/a
02/01:00pm S 21-29 kts n/a n/a n/a n/a
02/12:53pm S 15-28 kts n/a n/a n/a n/a
02/12:30pm SSW 13-20 kts n/a n/a n/a n/a
02/12:00pm SW 15-22 kts n/a n/a n/a n/a
02/11:30am SW 14-25 kts n/a n/a n/a n/a
02/11:23am SW 15-25 kts n/a n/a n/a n/a
02/11:00am WSW 14-23 kts n/a n/a n/a n/a
02/10:30am W 14-22 kts n/a n/a n/a n/a
02/10:00am W 14-21 kts n/a n/a n/a n/a
02/09:30am W 13-21 kts n/a n/a n/a n/a
02/09:00am W 15-21 kts n/a n/a n/a n/a
02/08:30am W 13-19 kts n/a n/a n/a n/a
02/08:00am W 14-21 kts n/a n/a n/a n/a
02/07:30am W 13-17 kts n/a n/a n/a n/a
02/07:00am W 12-15 kts n/a n/a n/a n/a
02/06:30am W 13-17 kts n/a n/a n/a n/a
02/06:00am W 15-21 kts n/a n/a n/a n/a
02/05:30am W 15-21 kts n/a n/a n/a n/a
02/05:07am W 15-25 kts n/a n/a n/a n/a
02/05:00am W 14-20 kts n/a n/a n/a n/a
02/04:30am W 15-21 kts n/a n/a n/a n/a
02/04:00am W 17-29 kts n/a n/a n/a n/a
02/03:30am WNW 17-28 kts n/a n/a n/a n/a
02/03:00am W 16-29 kts n/a n/a n/a n/a
02/02:34am WNW 15-27 kts n/a n/a n/a n/a
02/02:30am WNW 14-22 kts n/a n/a n/a n/a
02/02:05am WNW 16-26 kts n/a n/a n/a n/a
02/02:00am WNW 17-26 kts n/a n/a n/a n/a
02/01:30am WNW 15-22 kts n/a n/a n/a n/a
02/01:00am NW 15-21 kts n/a n/a n/a n/a
02/12:30am WNW 12-17 kts n/a n/a n/a n/a
02/12:00am W 7-13 kts n/a n/a n/a n/a
Time Wind Speed Temp Pressure Rel. Hum Rain
01/11:30pm WNW 9-14 kts n/a n/a n/a n/a
01/11:00pm WNW 10-15 kts n/a n/a n/a n/a
01/10:30pm NW 9-13 kts n/a n/a n/a n/a
01/10:00pm WNW 7-8 kts n/a n/a n/a n/a
01/09:30pm WNW 7-10 kts n/a n/a n/a n/a
01/09:00pm W 12-18 kts n/a n/a n/a n/a
01/08:30pm WNW 16-23 kts n/a n/a n/a n/a
01/08:00pm WNW 15-25 kts n/a n/a n/a n/a
01/07:38pm WNW 15-25 kts n/a n/a n/a n/a
01/07:30pm WNW 18-26 kts n/a n/a n/a n/a
01/07:01pm W 16-27 kts n/a n/a n/a n/a
01/07:00pm W 15-23 kts n/a n/a n/a n/a
01/06:30pm W 14-20 kts n/a n/a n/a n/a
01/06:00pm WSW 15-23 kts n/a n/a n/a n/a
01/05:30pm WNW 13-20 kts n/a n/a n/a n/a
01/05:00pm W 11-16 kts n/a n/a n/a n/a
01/04:30pm WNW 13-20 kts n/a n/a n/a n/a
01/04:00pm WNW 12-17 kts n/a n/a n/a n/a
01/03:30pm WNW 13-20 kts n/a n/a n/a n/a
01/03:00pm WNW 14-22 kts n/a n/a n/a n/a
01/02:30pm NW 11-17 kts n/a n/a n/a n/a
01/02:00pm NW 7-13 kts n/a n/a n/a n/a
01/01:30pm NNW 9-14 kts n/a n/a n/a n/a
01/01:00pm N 11-17 kts n/a n/a n/a n/a
01/12:30pm N 11-16 kts n/a n/a n/a n/a
01/12:00pm N 12-18 kts n/a n/a n/a n/a
01/11:30am N 13-17 kts n/a n/a n/a n/a
01/11:00am N 11-15 kts n/a n/a n/a n/a
01/10:30am N 10-15 kts n/a n/a n/a n/a
01/10:00am N 7-10 kts n/a n/a n/a n/a
01/09:30am N 8-13 kts n/a n/a n/a n/a
01/09:00am N 9-14 kts n/a n/a n/a n/a
01/08:30am NNW 9-13 kts n/a n/a n/a n/a
01/08:00am NNW 9-13 kts n/a n/a n/a n/a
01/07:30am NNW 9-13 kts n/a n/a n/a n/a
01/07:00am NNW 8-11 kts n/a n/a n/a n/a
01/06:30am NNW 8-12 kts n/a n/a n/a n/a
01/06:00am NNW 7-9 kts n/a n/a n/a n/a
01/05:30am NNW 7-10 kts n/a n/a n/a n/a
01/05:00am NNW 7-9 kts n/a n/a n/a n/a
01/04:30am NNW 7-10 kts n/a n/a n/a n/a
01/04:00am N 7-8 kts n/a n/a n/a n/a
01/03:30am NNW 8-10 kts n/a n/a n/a n/a
01/03:00am NNW 6-9 kts n/a n/a n/a n/a
01/02:30am NNW 7-10 kts n/a n/a n/a n/a
01/02:00am NNW 9-13 kts n/a n/a n/a n/a
01/01:30am NNW 7-10 kts n/a n/a n/a n/a
01/01:00am NW 5-7 kts n/a n/a n/a n/a
01/12:30am NW 6-8 kts n/a n/a n/a n/a
01/12:00am NW 6-8 kts n/a n/a n/a n/a